Time,TemperatureF,DewpointF,PressureIn,WindDirection,WindDirectionDegrees,WindSpeedMPH,WindSpeedGustMPH,Humidity,HourlyPrecipIn,Conditions,Clouds,dailyrainin,SoftwareType,DateUTC
2013-03-04 00:00:00,46.6,30.8,29.76,SSE,158,7.2,12.8,54,0.00,,,0.00,WUHU216HW,2013-03-04 06:00:00,
2013-03-04 00:05:00,46.4,30.6,29.75,SE,135,8.5,12.8,54,0.00,,,0.00,WUHU216HW,2013-03-04 06:05:00,
2013-03-04 00:10:00,46.4,30.6,29.76,SE,135,9.8,9.8,54,0.00,,,0.00,WUHU216HW,2013-03-04 06:10:00,
2013-03-04 00:15:00,46.8,31.0,29.76,SSE,158,6.7,9.8,54,0.00,,,0.00,WUHU216HW,2013-03-04 06:15:00,
2013-03-04 00:20:00,46.8,31.0,29.76,SSE,158,7.6,9.8,54,0.00,,,0.00,WUHU216HW,2013-03-04 06:20:00,
2013-03-04 00:25:00,46.8,31.0,29.75,SE,135,6.9,10.1,54,0.00,,,0.00,WUHU216HW,2013-03-04 06:25:00,
2013-03-04 00:30:00,46.8,31.0,29.75,SSE,158,4.7,10.1,54,0.00,,,0.00,WUHU216HW,2013-03-04 06:30:00,
2013-03-04 00:35:00,47.0,31.2,29.75,SSE,158,9.8,13.0,54,0.00,,,0.00,WUHU216HW,2013-03-04 06:35:00,
2013-03-04 00:40:00,47.2,30.8,29.74,SSE,158,6.3,13.0,53,0.00,,,0.00,WUHU216HW,2013-03-04 06:40:00,
2013-03-04 00:45:00,47.2,30.8,29.74,SE,135,8.5,10.1,53,0.00,,,0.00,WUHU216HW,2013-03-04 06:45:00,
2013-03-04 00:50:00,47.2,31.3,29.73,SSE,158,6.5,10.1,54,0.00,,,0.00,WUHU216HW,2013-03-04 06:50:00,
2013-03-04 00:55:00,47.2,31.3,29.74,SE,135,9.2,10.1,54,0.00,,,0.00,WUHU216HW,2013-03-04 06:55:00,
2013-03-04 01:00:00,47.2,31.3,29.73,SSE,158,9.2,12.1,54,0.00,,,0.00,WUHU216HW,2013-03-04 07:00:00,
2013-03-04 01:05:00,47.2,31.3,29.73,SE,135,8.9,12.1,54,0.00,,,0.00,WUHU216HW,2013-03-04 07:05:00,
2013-03-04 01:10:00,47.2,31.3,29.73,SE,135,7.8,10.1,54,0.00,,,0.00,WUHU216HW,2013-03-04 07:10:00,
2013-03-04 01:15:00,47.2,31.3,29.73,SE,135,4.7,9.8,54,0.00,,,0.00,WUHU216HW,2013-03-04 07:15:00,
2013-03-04 01:20:00,47.3,31.4,29.73,SE,135,6.5,8.1,54,0.00,,,0.00,WUHU216HW,2013-03-04 07:20:00,
2013-03-04 01:25:00,47.5,31.6,29.71,SSE,158,11.2,14.1,54,0.00,,,0.00,WUHU216HW,2013-03-04 07:25:00,
2013-03-04 01:30:00,47.7,31.8,29.72,South,180,2.9,15.0,54,0.00,,,0.00,WUHU216HW,2013-03-04 07:30:00,
2013-03-04 01:35:00,47.5,31.6,29.71,South,180,9.6,15.0,54,0.00,,,0.00,WUHU216HW,2013-03-04 07:35:00,
2013-03-04 01:40:00,47.7,31.8,29.71,SE,135,5.4,13.6,54,0.00,,,0.00,WUHU216HW,2013-03-04 07:40:00,
2013-03-04 01:45:00,47.9,31.5,29.71,SSE,158,6.9,12.1,53,0.00,,,0.00,WUHU216HW,2013-03-04 07:45:00,
2013-03-04 01:50:00,47.7,31.3,29.71,SE,135,10.5,10.7,53,0.00,,,0.00,WUHU216HW,2013-03-04 07:50:00,
2013-03-04 01:55:00,47.5,31.6,29.71,SSW,203,11.2,11.2,54,0.00,,,0.00,WUHU216HW,2013-03-04 07:55:00,
2013-03-04 02:00:00,48.1,32.1,29.71,SSE,158,11.4,11.4,54,0.00,,,0.00,WUHU216HW,2013-03-04 08:00:00,
2013-03-04 02:05:00,48.1,32.1,29.70,SSE,158,8.5,11.4,54,0.00,,,0.00,WUHU216HW,2013-03-04 08:05:00,
2013-03-04 02:10:00,48.4,32.1,29.71,SE,135,9.8,11.4,53,0.00,,,0.00,WUHU216HW,2013-03-04 08:10:00,
2013-03-04 02:15:00,48.8,32.3,29.70,SE,135,8.7,13.0,53,0.00,,,0.00,WUHU216HW,2013-03-04 08:15:00,
2013-03-04 02:20:00,48.8,31.9,29.69,South,180,8.5,13.0,52,0.00,,,0.00,WUHU216HW,2013-03-04 08:20:00,
2013-03-04 02:25:00,49.0,32.0,29.69,ESE,113,11.2,11.6,52,0.00,,,0.00,WUHU216HW,2013-03-04 08:25:00,
2013-03-04 02:30:00,48.8,32.3,29.69,SE,135,7.4,11.6,53,0.00,,,0.00,WUHU216HW,2013-03-04 08:30:00,
2013-03-04 02:35:00,48.6,32.1,29.69,SE,135,6.7,11.4,53,0.00,,,0.00,WUHU216HW,2013-03-04 08:35:00,
2013-03-04 02:40:00,48.6,32.1,29.69,SSE,158,8.5,10.7,53,0.00,,,0.00,WUHU216HW,2013-03-04 08:40:00,
2013-03-04 02:45:00,48.4,32.1,29.69,SE,135,6.3,9.6,53,0.00,,,0.00,WUHU216HW,2013-03-04 08:45:00,
2013-03-04 02:50:00,48.2,32.3,29.69,SSE,158,8.9,11.2,54,0.00,,,0.00,WUHU216HW,2013-03-04 08:50:00,
2013-03-04 02:55:00,48.2,32.3,29.69,SSE,158,4.7,11.2,54,0.00,,,0.00,WUHU216HW,2013-03-04 08:55:00,
2013-03-04 03:00:00,48.1,32.1,29.68,South,180,4.3,9.2,54,0.00,,,0.00,WUHU216HW,2013-03-04 09:00:00,
2013-03-04 03:05:00,48.1,32.1,29.68,SE,135,5.1,9.2,54,0.00,,,0.00,WUHU216HW,2013-03-04 09:05:00,
2013-03-04 03:10:00,47.9,32.4,29.68,ESE,113,5.1,8.5,55,0.00,,,0.00,WUHU216HW,2013-03-04 09:10:00,
2013-03-04 03:15:00,47.7,32.2,29.68,SE,135,5.4,8.3,55,0.00,,,0.00,WUHU216HW,2013-03-04 09:15:00,
2013-03-04 03:20:00,47.7,32.2,29.68,South,180,5.4,6.9,55,0.00,,,0.00,WUHU216HW,2013-03-04 09:20:00,
2013-03-04 03:25:00,47.5,32.6,29.68,SE,135,4.7,6.9,56,0.00,,,0.00,WUHU216HW,2013-03-04 09:25:00,
2013-03-04 03:30:00,47.3,32.4,29.68,SSE,158,2.5,6.5,56,0.00,,,0.00,WUHU216HW,2013-03-04 09:30:00,
2013-03-04 03:35:00,47.2,32.2,29.68,SE,135,6.9,6.9,56,0.00,,,0.00,WUHU216HW,2013-03-04 09:35:00,
2013-03-04 03:40:00,47.2,32.2,29.68,SE,135,4.5,6.9,56,0.00,,,0.00,WUHU216HW,2013-03-04 09:40:00,
2013-03-04 03:45:00,47.2,32.2,29.68,SSE,158,7.6,8.5,56,0.00,,,0.00,WUHU216HW,2013-03-04 09:45:00,
2013-03-04 03:50:00,47.2,32.7,29.67,SSE,158,2.9,8.5,57,0.00,,,0.00,WUHU216HW,2013-03-04 09:50:00,
2013-03-04 03:55:00,47.2,32.7,29.67,ESE,113,6.9,8.1,57,0.00,,,0.00,WUHU216HW,2013-03-04 09:55:00,
2013-03-04 04:00:00,47.2,32.7,29.67,SE,135,5.4,7.2,57,0.00,,,0.00,WUHU216HW,2013-03-04 10:00:00,
2013-03-04 04:05:00,47.0,32.5,29.67,SE,135,6.0,6.9,57,0.00,,,0.00,WUHU216HW,2013-03-04 10:05:00,
2013-03-04 04:10:00,47.0,32.5,29.67,SSE,158,6.9,8.1,57,0.00,,,0.00,WUHU216HW,2013-03-04 10:10:00,
2013-03-04 04:15:00,47.0,32.5,29.67,SSE,158,4.5,8.1,57,0.00,,,0.00,WUHU216HW,2013-03-04 10:15:00,
2013-03-04 04:20:00,46.8,32.3,29.67,SE,135,4.0,7.2,57,0.00,,,0.00,WUHU216HW,2013-03-04 10:20:00,
2013-03-04 04:25:00,46.8,32.3,29.67,SE,135,4.0,6.5,57,0.00,,,0.00,WUHU216HW,2013-03-04 10:25:00,
2013-03-04 04:30:00,46.8,32.3,29.67,SE,135,4.9,5.6,57,0.00,,,0.00,WUHU216HW,2013-03-04 10:30:00,
2013-03-04 04:35:00,46.8,32.3,29.67,SSE,158,2.5,5.6,57,0.00,,,0.00,WUHU216HW,2013-03-04 10:35:00,
2013-03-04 04:40:00,46.6,32.1,29.67,SE,135,2.7,4.7,57,0.00,,,0.00,WUHU216HW,2013-03-04 10:40:00,
2013-03-04 04:45:00,46.4,32.4,29.67,SE,135,4.7,8.5,58,0.00,,,0.00,WUHU216HW,2013-03-04 10:45:00,
2013-03-04 04:50:00,46.3,32.2,29.67,SSE,158,4.7,8.5,58,0.00,,,0.00,WUHU216HW,2013-03-04 10:50:00,
2013-03-04 04:55:00,46.3,32.2,29.66,SE,135,4.3,6.5,58,0.00,,,0.00,WUHU216HW,2013-03-04 10:55:00,
2013-03-04 05:00:00,46.3,32.2,29.67,SSE,158,4.0,7.6,58,0.00,,,0.00,WUHU216HW,2013-03-04 11:00:00,
2013-03-04 05:05:00,46.1,32.0,29.67,SE,135,6.9,7.6,58,0.00,,,0.00,WUHU216HW,2013-03-04 11:05:00,
2013-03-04 05:10:00,46.1,32.5,29.67,SE,135,3.4,7.2,59,0.00,,,0.00,WUHU216HW,2013-03-04 11:10:00,
2013-03-04 05:15:00,46.1,32.5,29.67,South,180,5.6,7.4,59,0.00,,,0.00,WUHU216HW,2013-03-04 11:15:00,
2013-03-04 05:20:00,45.7,32.7,29.66,SE,135,3.4,7.4,60,0.00,,,0.00,WUHU216HW,2013-03-04 11:20:00,
2013-03-04 05:25:00,45.7,32.7,29.67,SSE,158,4.7,6.9,60,0.00,,,0.00,WUHU216HW,2013-03-04 11:25:00,
2013-03-04 05:30:00,45.7,32.7,29.67,SE,135,2.2,4.7,60,0.00,,,0.00,WUHU216HW,2013-03-04 11:30:00,
2013-03-04 05:35:00,45.7,32.7,29.66,SSE,158,2.7,5.1,60,0.00,,,0.00,WUHU216HW,2013-03-04 11:35:00,
2013-03-04 05:40:00,45.7,32.7,29.67,SE,135,2.2,5.1,60,0.00,,,0.00,WUHU216HW,2013-03-04 11:40:00,
2013-03-04 05:45:00,45.7,32.7,29.67,SE,135,1.6,4.9,60,0.00,,,0.00,WUHU216HW,2013-03-04 11:45:00,
2013-03-04 05:50:00,45.7,33.0,29.67,ESE,113,3.4,4.9,61,0.00,,,0.00,WUHU216HW,2013-03-04 11:50:00,
2013-03-04 05:55:00,45.7,33.0,29.66,SE,135,4.0,4.0,61,0.00,,,0.00,WUHU216HW,2013-03-04 11:55:00,
2013-03-04 06:00:00,45.5,32.9,29.66,SE,135,2.5,4.0,61,0.00,,,0.00,WUHU216HW,2013-03-04 12:00:00,
2013-03-04 06:05:00,45.4,32.7,29.66,ESE,113,3.1,4.7,61,0.00,,,0.00,WUHU216HW,2013-03-04 12:05:00,
2013-03-04 06:10:00,44.8,32.6,29.66,ESE,113,2.9,6.3,62,0.00,,,0.00,WUHU216HW,2013-03-04 12:10:00,
2013-03-04 06:15:00,44.5,32.7,29.66,East,90,3.4,6.3,63,0.00,,,0.00,WUHU216HW,2013-03-04 12:15:00,
2013-03-04 06:20:00,44.3,32.5,29.66,ESE,113,1.6,4.0,63,0.00,,,0.00,WUHU216HW,2013-03-04 12:20:00,
2013-03-04 06:25:00,43.7,32.0,29.66,ESE,113,2.5,4.0,63,0.00,,,0.00,WUHU216HW,2013-03-04 12:25:00,
2013-03-04 06:30:00,43.6,31.8,29.66,East,90,2.2,2.7,63,0.00,,,0.00,WUHU216HW,2013-03-04 12:30:00,
2013-03-04 06:35:00,43.0,32.1,29.66,SE,135,3.4,3.4,65,0.00,,,0.00,WUHU216HW,2013-03-04 12:35:00,
2013-03-04 06:40:00,42.8,32.2,29.66,ESE,113,1.8,3.8,66,0.00,,,0.00,WUHU216HW,2013-03-04 12:40:00,
2013-03-04 06:45:00,42.7,32.0,29.66,ESE,113,2.7,3.8,66,0.00,,,0.00,WUHU216HW,2013-03-04 12:45:00,
2013-03-04 06:50:00,42.5,32.3,29.66,ESE,113,1.8,3.4,67,0.00,,,0.00,WUHU216HW,2013-03-04 12:50:00,
2013-03-04 06:55:00,42.5,32.7,29.66,ESE,113,2.5,2.9,68,0.00,,,0.00,WUHU216HW,2013-03-04 12:55:00,
2013-03-04 07:00:00,42.7,32.0,29.66,ESE,113,1.1,2.9,66,0.00,,,0.00,WUHU216HW,2013-03-04 13:00:00,
2013-03-04 07:05:00,42.5,32.3,29.66,ESE,113,1.1,5.4,67,0.00,,,0.00,WUHU216HW,2013-03-04 13:05:00,
2013-03-04 07:10:00,42.5,32.3,29.66,ESE,113,2.5,5.4,67,0.00,,,0.00,WUHU216HW,2013-03-04 13:10:00,
2013-03-04 07:15:00,42.5,32.7,29.66,SE,135,1.8,3.8,68,0.00,,,0.00,WUHU216HW,2013-03-04 13:15:00,
2013-03-04 07:20:00,42.7,32.9,29.66,SE,135,1.8,3.1,68,0.00,,,0.00,WUHU216HW,2013-03-04 13:20:00,
2013-03-04 07:25:00,42.8,33.0,29.66,ESE,113,1.3,3.4,68,0.00,,,0.00,WUHU216HW,2013-03-04 13:25:00,
2013-03-04 07:30:00,43.2,33.4,29.66,ESE,113,2.2,3.4,68,0.00,,,0.00,WUHU216HW,2013-03-04 13:30:00,
2013-03-04 07:35:00,43.6,33.8,29.67,SE,135,1.1,2.2,68,0.00,,,0.00,WUHU216HW,2013-03-04 13:35:00,
2013-03-04 07:40:00,43.9,33.7,29.67,ESE,113,1.8,2.2,67,0.00,,,0.00,WUHU216HW,2013-03-04 13:40:00,
2013-03-04 07:45:00,44.3,33.6,29.67,ESE,113,2.2,3.4,66,0.00,,,0.00,WUHU216HW,2013-03-04 13:45:00,
2013-03-04 07:50:00,45.0,34.3,29.67,SE,135,2.5,5.1,66,0.00,,,0.00,WUHU216HW,2013-03-04 13:50:00,
2013-03-04 07:55:00,46.3,34.8,29.67,East,90,3.4,5.1,64,0.00,,,0.00,WUHU216HW,2013-03-04 13:55:00,
2013-03-04 08:00:00,47.0,35.0,29.68,ESE,113,2.5,4.5,63,0.00,,,0.00,WUHU216HW,2013-03-04 14:00:00,
2013-03-04 08:05:00,47.9,35.1,29.68,SE,135,2.0,4.5,61,0.00,,,0.00,WUHU216HW,2013-03-04 14:05:00,
2013-03-04 08:10:00,48.6,35.5,29.68,ESE,113,2.5,4.7,60,0.00,,,0.00,WUHU216HW,2013-03-04 14:10:00,
2013-03-04 08:15:00,49.1,35.9,29.68,ESE,113,3.8,4.7,60,0.00,,,0.00,WUHU216HW,2013-03-04 14:15:00,
2013-03-04 08:20:00,49.7,35.9,29.68,ESE,113,2.7,4.3,59,0.00,,,0.00,WUHU216HW,2013-03-04 14:20:00,
2013-03-04 08:25:00,50.2,36.0,29.68,ESE,113,2.9,4.0,58,0.00,,,0.00,WUHU216HW,2013-03-04 14:25:00,
2013-03-04 08:30:00,50.6,35.8,29.68,ESE,113,2.7,4.0,57,0.00,,,0.00,WUHU216HW,2013-03-04 14:30:00,
2013-03-04 08:35:00,50.9,36.2,29.68,ESE,113,2.2,3.8,57,0.00,,,0.00,WUHU216HW,2013-03-04 14:35:00,
2013-03-04 08:40:00,51.5,36.2,29.68,SE,135,4.7,5.4,56,0.00,,,0.00,WUHU216HW,2013-03-04 14:40:00,
2013-03-04 08:45:00,51.8,36.5,29.68,SE,135,2.9,7.6,56,0.00,,,0.00,WUHU216HW,2013-03-04 14:45:00,
2013-03-04 08:50:00,52.2,36.9,29.68,South,180,7.2,7.6,56,0.00,,,0.00,WUHU216HW,2013-03-04 14:50:00,
2013-03-04 08:55:00,52.6,37.3,29.67,South,180,6.9,7.6,56,0.00,,,0.00,WUHU216HW,2013-03-04 14:55:00,
2013-03-04 09:00:00,53.6,37.8,29.67,SSE,158,6.0,7.2,55,0.00,,,0.00,WUHU216HW,2013-03-04 15:00:00,
2013-03-04 09:05:00,54.4,38.4,29.67,South,180,7.6,7.6,55,0.00,,,0.00,WUHU216HW,2013-03-04 15:05:00,
2013-03-04 09:10:00,54.4,38.4,29.67,South,180,7.8,7.8,55,0.00,,,0.00,WUHU216HW,2013-03-04 15:10:00,
2013-03-04 09:15:00,54.7,38.8,29.67,SSE,158,4.9,7.8,55,0.00,,,0.00,WUHU216HW,2013-03-04 15:15:00,
2013-03-04 09:20:00,55.1,38.6,29.67,SSE,158,8.1,8.1,54,0.00,,,0.00,WUHU216HW,2013-03-04 15:20:00,
2013-03-04 09:25:00,55.6,39.6,29.67,SSW,203,7.4,9.6,55,0.00,,,0.00,WUHU216HW,2013-03-04 15:25:00,
2013-03-04 09:30:00,55.8,38.9,29.67,SSW,203,7.4,11.2,53,0.00,,,0.00,WUHU216HW,2013-03-04 15:30:00,
2013-03-04 09:35:00,55.8,38.9,29.67,SSW,203,7.4,11.2,53,0.00,,,0.00,WUHU216HW,2013-03-04 15:35:00,
2013-03-04 09:59:00,57.8,41.2,29.67,SSW,203,6.0,6.0,54,0.00,,,0.00,WUHU216HW,2013-03-04 15:59:00,
2013-03-04 10:04:00,57.8,40.8,29.67,South,180,6.9,7.6,53,0.00,,,0.00,WUHU216HW,2013-03-04 16:04:00,
2013-03-04 10:09:00,58.9,41.8,29.67,SW,225,6.3,9.6,53,0.00,,,0.00,WUHU216HW,2013-03-04 16:09:00,
2013-03-04 10:14:00,58.7,41.6,29.67,South,180,8.1,9.6,53,0.00,,,0.00,WUHU216HW,2013-03-04 16:14:00,
2013-03-04 10:19:00,58.5,41.0,29.67,SSE,158,5.4,8.1,52,0.00,,,0.00,WUHU216HW,2013-03-04 16:19:00,
2013-03-04 10:24:00,59.2,42.0,29.66,SSE,158,4.0,8.1,53,0.00,,,0.00,WUHU216HW,2013-03-04 16:24:00,
2013-03-04 10:29:00,59.6,41.0,29.66,SSE,158,6.5,6.5,50,0.00,,,0.00,WUHU216HW,2013-03-04 16:29:00,
2013-03-04 10:34:00,60.1,41.9,29.66,SSE,158,8.5,8.5,51,0.00,,,0.00,WUHU216HW,2013-03-04 16:34:00,
2013-03-04 10:39:00,60.1,41.5,29.66,SW,225,6.3,8.7,50,0.00,,,0.00,WUHU216HW,2013-03-04 16:39:00,
2013-03-04 10:44:00,60.3,42.1,29.66,SSE,158,5.4,8.7,51,0.00,,,0.00,WUHU216HW,2013-03-04 16:44:00,
2013-03-04 10:49:00,60.5,41.8,29.66,SSW,203,7.6,7.6,50,0.00,,,0.00,WUHU216HW,2013-03-04 16:49:00,
2013-03-04 10:54:00,60.7,41.9,29.66,SSW,203,5.1,7.6,50,0.00,,,0.00,WUHU216HW,2013-03-04 16:54:00,
2013-03-04 10:59:00,61.4,42.0,29.66,SSW,203,4.9,8.1,49,0.00,,,0.00,WUHU216HW,2013-03-04 16:59:00,
2013-03-04 11:04:00,61.0,41.7,29.66,South,180,8.3,8.3,49,0.00,,,0.00,WUHU216HW,2013-03-04 17:04:00,
2013-03-04 11:09:00,61.6,42.8,29.66,SW,225,7.6,8.3,50,0.00,,,0.00,WUHU216HW,2013-03-04 17:09:00,
2013-03-04 11:14:00,61.2,41.3,29.66,SW,225,10.7,10.7,48,0.00,,,0.00,WUHU216HW,2013-03-04 17:14:00,
2013-03-04 11:19:00,61.7,42.4,29.66,South,180,5.4,10.7,49,0.00,,,0.00,WUHU216HW,2013-03-04 17:19:00,
2013-03-04 11:24:00,61.7,42.4,29.66,South,180,6.0,10.7,49,0.00,,,0.00,WUHU216HW,2013-03-04 17:24:00,
2013-03-04 11:29:00,62.3,42.3,29.66,SSW,203,5.6,8.9,48,0.00,,,0.00,WUHU216HW,2013-03-04 17:29:00,
2013-03-04 11:34:00,62.3,41.7,29.65,SSW,203,5.6,6.3,47,0.00,,,0.00,WUHU216HW,2013-03-04 17:34:00,
2013-03-04 11:39:00,62.6,41.4,29.65,South,180,5.6,5.8,46,0.00,,,0.00,WUHU216HW,2013-03-04 17:39:00,
2013-03-04 11:44:00,63.0,42.9,29.65,SSW,203,7.8,7.8,48,0.00,,,0.00,WUHU216HW,2013-03-04 17:44:00,
2013-03-04 11:49:00,62.6,41.4,29.64,SW,225,4.5,7.8,46,0.00,,,0.00,WUHU216HW,2013-03-04 17:49:00,
2013-03-04 11:54:00,62.5,42.4,29.64,South,180,4.7,7.8,48,0.00,,,0.00,WUHU216HW,2013-03-04 17:54:00,
2013-03-04 11:59:00,63.0,43.5,29.64,South,180,4.9,4.9,49,0.00,,,0.00,WUHU216HW,2013-03-04 17:59:00,
2013-03-04 12:04:00,63.4,42.7,29.64,South,180,4.5,6.9,47,0.00,,,0.00,WUHU216HW,2013-03-04 18:04:00,
2013-03-04 12:09:00,63.4,42.1,29.63,SW,225,11.0,11.0,46,0.00,,,0.00,WUHU216HW,2013-03-04 18:09:00,
2013-03-04 12:14:00,63.5,42.9,29.63,SW,225,3.6,11.0,47,0.00,,,0.00,WUHU216HW,2013-03-04 18:14:00,
2013-03-04 12:19:00,63.7,43.0,29.63,WSW,248,6.0,11.0,47,0.00,,,0.00,WUHU216HW,2013-03-04 18:19:00,
2013-03-04 12:24:00,63.7,43.0,29.63,SSE,158,6.5,8.5,47,0.00,,,0.00,WUHU216HW,2013-03-04 18:24:00,
2013-03-04 12:29:00,64.1,42.8,29.63,South,180,6.9,8.5,46,0.00,,,0.00,WUHU216HW,2013-03-04 18:29:00,
2013-03-04 12:34:00,63.9,43.8,29.63,SE,135,6.0,6.9,48,0.00,,,0.00,WUHU216HW,2013-03-04 18:34:00,
2013-03-04 12:39:00,64.4,43.0,29.63,South,180,6.9,6.9,46,0.00,,,0.00,WUHU216HW,2013-03-04 18:39:00,
2013-03-04 12:44:00,64.6,43.8,29.62,SW,225,3.6,6.9,47,0.00,,,0.00,WUHU216HW,2013-03-04 18:44:00,
2013-03-04 12:49:00,64.6,42.7,29.62,SW,225,5.4,6.9,45,0.00,,,0.00,WUHU216HW,2013-03-04 18:49:00,
2013-03-04 12:54:00,64.4,43.0,29.62,SW,225,2.0,6.0,46,0.00,,,0.00,WUHU216HW,2013-03-04 18:54:00,
2013-03-04 12:59:00,65.2,42.6,29.62,SSE,158,9.2,9.4,44,0.00,,,0.00,WUHU216HW,2013-03-04 18:59:00,
2013-03-04 13:04:00,65.2,42.6,29.62,South,180,5.1,9.4,44,0.00,,,0.00,WUHU216HW,2013-03-04 19:04:00,
2013-03-04 13:09:00,65.7,43.7,29.62,SSW,203,3.8,9.2,45,0.00,,,0.00,WUHU216HW,2013-03-04 19:09:00,
2013-03-04 13:14:00,65.5,43.5,29.62,SSW,203,5.6,6.9,45,0.00,,,0.00,WUHU216HW,2013-03-04 19:14:00,
2013-03-04 13:19:00,65.2,42.6,29.62,SSW,203,4.3,7.6,44,0.00,,,0.00,WUHU216HW,2013-03-04 19:19:00,
2013-03-04 13:24:00,66.2,43.0,29.62,SSW,203,4.0,7.6,43,0.00,,,0.00,WUHU216HW,2013-03-04 19:24:00,
2013-03-04 13:29:00,65.9,42.1,29.62,WSW,248,2.2,5.6,42,0.00,,,0.00,WUHU216HW,2013-03-04 19:29:00,
2013-03-04 13:34:00,65.7,42.5,29.62,WSW,248,3.1,4.5,43,0.00,,,0.00,WUHU216HW,2013-03-04 19:34:00,
2013-03-04 13:39:00,65.9,42.1,29.62,SW,225,4.7,8.3,42,0.00,,,0.00,WUHU216HW,2013-03-04 19:39:00,
2013-03-04 13:44:00,66.2,43.0,29.62,SSW,203,3.6,8.3,43,0.00,,,0.00,WUHU216HW,2013-03-04 19:44:00,
2013-03-04 13:49:00,66.8,42.3,29.61,South,180,2.7,4.7,41,0.00,,,0.00,WUHU216HW,2013-03-04 19:49:00,
2013-03-04 13:54:00,67.5,42.9,29.61,SW,225,0.2,3.6,41,0.00,,,0.00,WUHU216HW,2013-03-04 19:54:00,
2013-03-04 13:59:00,67.9,42.7,29.61,South,180,4.3,6.3,40,0.00,,,0.00,WUHU216HW,2013-03-04 19:59:00,
2013-03-04 14:04:00,68.0,44.7,29.61,SSW,203,4.9,6.3,43,0.00,,,0.00,WUHU216HW,2013-03-04 20:04:00,
2013-03-04 14:09:00,67.5,42.9,29.62,SW,225,4.5,4.9,41,0.00,,,0.00,WUHU216HW,2013-03-04 20:09:00,
2013-03-04 14:14:00,68.2,43.6,29.62,SW,225,6.9,6.9,41,0.00,,,0.00,WUHU216HW,2013-03-04 20:14:00,
2013-03-04 14:19:00,68.2,43.6,29.62,SW,225,4.3,6.9,41,0.00,,,0.00,WUHU216HW,2013-03-04 20:19:00,
2013-03-04 14:24:00,69.1,43.8,29.62,SSE,158,5.4,6.9,40,0.00,,,0.00,WUHU216HW,2013-03-04 20:24:00,
2013-03-04 14:29:00,68.9,44.3,29.62,SW,225,2.9,6.3,41,0.00,,,0.00,WUHU216HW,2013-03-04 20:29:00,
2013-03-04 14:34:00,68.9,44.3,29.62,WSW,248,2.5,6.0,41,0.00,,,0.00,WUHU216HW,2013-03-04 20:34:00,
2013-03-04 14:39:00,69.1,44.4,29.62,SSW,203,3.1,6.0,41,0.00,,,0.00,WUHU216HW,2013-03-04 20:39:00,
2013-03-04 14:44:00,69.1,44.4,29.62,SSW,203,3.6,3.6,41,0.00,,,0.00,WUHU216HW,2013-03-04 20:44:00,
2013-03-04 14:49:00,69.1,43.8,29.63,SSE,158,2.9,4.9,40,0.00,,,0.00,WUHU216HW,2013-03-04 20:49:00,
2013-03-04 14:54:00,68.8,43.5,29.63,South,180,2.5,4.9,40,0.00,,,0.00,WUHU216HW,2013-03-04 20:54:00,
2013-03-04 14:59:00,68.0,44.0,29.63,SSE,158,3.8,5.4,42,0.00,,,0.00,WUHU216HW,2013-03-04 20:59:00,
2013-03-04 15:04:00,68.8,44.6,29.63,SE,135,4.7,5.4,42,0.00,,,0.00,WUHU216HW,2013-03-04 21:04:00,
2013-03-04 15:09:00,68.9,44.8,29.63,West,270,7.6,7.6,42,0.00,,,0.00,WUHU216HW,2013-03-04 21:09:00,
2013-03-04 15:14:00,67.5,42.9,29.63,SW,225,5.1,7.6,41,0.00,,,0.00,WUHU216HW,2013-03-04 21:14:00,
2013-03-04 15:19:00,66.2,42.4,29.63,WSW,248,4.3,7.4,42,0.00,,,0.00,WUHU216HW,2013-03-04 21:19:00,
2013-03-04 15:24:00,65.7,43.1,29.63,WSW,248,2.7,5.4,44,0.00,,,0.00,WUHU216HW,2013-03-04 21:24:00,
2013-03-04 15:29:00,67.7,43.1,29.64,SSW,203,0.4,4.3,41,0.00,,,0.00,WUHU216HW,2013-03-04 21:29:00,
2013-03-04 15:34:00,69.8,44.5,29.64,WSW,248,4.7,4.7,40,0.00,,,0.00,WUHU216HW,2013-03-04 21:34:00,
2013-03-04 15:39:00,67.0,42.5,29.64,SSW,203,2.2,4.7,41,0.00,,,0.00,WUHU216HW,2013-03-04 21:39:00,
2013-03-04 15:44:00,66.1,43.5,29.64,SW,225,3.4,4.7,44,0.00,,,0.00,WUHU216HW,2013-03-04 21:44:00,
2013-03-04 15:49:00,65.7,42.5,29.64,SW,225,1.8,3.4,43,0.00,,,0.00,WUHU216HW,2013-03-04 21:49:00,
2013-03-04 15:54:00,69.5,44.7,29.64,West,270,2.5,3.4,41,0.00,,,0.00,WUHU216HW,2013-03-04 21:54:00,
2013-03-04 15:59:00,70.4,44.9,29.64,SSW,203,4.9,4.9,40,0.00,,,0.00,WUHU216HW,2013-03-04 21:59:00,
2013-03-04 16:04:00,68.8,43.5,29.65,WSW,248,5.1,6.5,40,0.00,,,0.00,WUHU216HW,2013-03-04 22:04:00,
2013-03-04 16:09:00,66.6,43.3,29.65,WSW,248,6.7,6.9,43,0.00,,,0.00,WUHU216HW,2013-03-04 22:09:00,
2013-03-04 16:15:00,65.5,43.5,29.65,SSW,203,2.0,8.7,45,0.00,,,0.00,WUHU216HW,2013-03-04 22:15:00,
2013-03-04 16:20:00,64.8,43.4,29.65,SW,225,2.0,8.7,46,0.00,,,0.00,WUHU216HW,2013-03-04 22:20:00,
2013-03-04 16:25:00,65.2,44.9,29.65,SSW,203,0.7,3.4,48,0.00,,,0.00,WUHU216HW,2013-03-04 22:25:00,
2013-03-04 16:30:00,66.6,44.6,29.66,South,180,2.9,2.9,45,0.00,,,0.00,WUHU216HW,2013-03-04 22:30:00,
2013-03-04 16:35:00,68.0,45.2,29.65,SW,225,1.8,2.9,44,0.00,,,0.00,WUHU216HW,2013-03-04 22:35:00,
2013-03-04 16:40:00,68.9,44.3,29.66,SW,225,1.8,3.4,41,0.00,,,0.00,WUHU216HW,2013-03-04 22:40:00,
2013-03-04 16:45:00,69.1,44.4,29.66,SSE,158,0.2,3.4,41,0.00,,,0.00,WUHU216HW,2013-03-04 22:45:00,
2013-03-04 16:50:00,66.8,43.5,29.66,SSW,203,1.8,2.7,43,0.00,,,0.00,WUHU216HW,2013-03-04 22:50:00,
2013-03-04 16:55:00,65.5,42.9,29.66,SW,225,3.4,3.4,44,0.00,,,0.00,WUHU216HW,2013-03-04 22:55:00,
2013-03-04 17:00:00,64.6,42.7,29.66,SW,225,1.1,3.4,45,0.00,,,0.00,WUHU216HW,2013-03-04 23:00:00,
2013-03-04 17:05:00,65.9,43.8,29.66,SW,225,0.4,3.4,45,0.00,,,0.00,WUHU216HW,2013-03-04 23:05:00,
2013-03-04 17:10:00,66.8,43.5,29.66,SW,225,0.4,1.1,43,0.00,,,0.00,WUHU216HW,2013-03-04 23:10:00,
2013-03-04 17:15:00,67.1,42.7,29.66,SW,225,0.9,0.9,41,0.00,,,0.00,WUHU216HW,2013-03-04 23:15:00,
2013-03-04 17:20:00,66.6,43.3,29.66,WSW,248,0.4,1.1,43,0.00,,,0.00,WUHU216HW,2013-03-04 23:20:00,
2013-03-04 17:25:00,65.9,43.3,29.66,WSW,248,1.6,1.6,44,0.00,,,0.00,WUHU216HW,2013-03-04 23:25:00,
2013-03-04 17:30:00,65.2,43.2,29.67,WSW,248,0.0,1.6,45,0.00,,,0.00,WUHU216HW,2013-03-04 23:30:00,
2013-03-04 17:35:00,64.6,43.2,29.67,SW,225,0.7,1.6,46,0.00,,,0.00,WUHU216HW,2013-03-04 23:35:00,
2013-03-04 17:40:00,64.1,43.3,29.67,SW,225,1.1,1.6,47,0.00,,,0.00,WUHU216HW,2013-03-04 23:40:00,
2013-03-04 17:45:00,63.7,43.0,29.67,SW,225,0.9,1.6,47,0.00,,,0.00,WUHU216HW,2013-03-04 23:45:00,
2013-03-04 17:50:00,63.4,43.2,29.68,SW,225,0.7,1.1,48,0.00,,,0.00,WUHU216HW,2013-03-04 23:50:00,
2013-03-04 17:55:00,62.6,43.2,29.68,SW,225,0.0,1.1,49,0.00,,,0.00,WUHU216HW,2013-03-04 23:55:00,
2013-03-04 18:00:00,62.3,42.8,29.68,SW,225,0.0,1.1,49,0.00,,,0.00,WUHU216HW,2013-03-05 00:00:00,
2013-03-04 18:05:00,61.6,42.2,29.68,SW,225,0.0,0.7,49,0.00,,,0.00,WUHU216HW,2013-03-05 00:05:00,
2013-03-04 18:10:00,61.0,41.7,29.68,SW,225,0.0,0.7,49,0.00,,,0.00,WUHU216HW,2013-03-05 00:10:00,
2013-03-04 18:15:00,60.7,41.9,29.68,SW,225,0.0,0.0,50,0.00,,,0.00,WUHU216HW,2013-03-05 00:15:00,
2013-03-04 18:20:00,60.3,41.7,29.69,SW,225,0.0,0.0,50,0.00,,,0.00,WUHU216HW,2013-03-05 00:20:00,
2013-03-04 18:25:00,59.9,41.8,29.69,SW,225,0.0,0.0,51,0.00,,,0.00,WUHU216HW,2013-03-05 00:25:00,
2013-03-04 18:30:00,59.8,42.1,29.69,SW,225,0.0,0.0,52,0.00,,,0.00,WUHU216HW,2013-03-05 00:30:00,
2013-03-04 18:35:00,59.4,41.3,29.69,SW,225,0.0,0.0,51,0.00,,,0.00,WUHU216HW,2013-03-05 00:35:00,
2013-03-04 18:40:00,59.0,41.4,29.70,SW,225,0.0,0.0,52,0.00,,,0.00,WUHU216HW,2013-03-05 00:40:00,
2013-03-04 18:45:00,58.7,41.1,29.70,SW,225,0.0,0.0,52,0.00,,,0.00,WUHU216HW,2013-03-05 00:45:00,
2013-03-04 18:50:00,58.5,41.4,29.70,SW,225,0.0,0.0,53,0.00,,,0.00,WUHU216HW,2013-03-05 00:50:00,
2013-03-04 18:55:00,58.3,41.8,29.70,SW,225,0.0,0.0,54,0.00,,,0.00,WUHU216HW,2013-03-05 00:55:00,
2013-03-04 19:00:00,58.3,42.2,29.71,SW,225,0.0,0.0,55,0.00,,,0.00,WUHU216HW,2013-03-05 01:00:00,
2013-03-04 19:05:00,58.0,41.4,29.71,SW,225,0.0,0.0,54,0.00,,,0.00,WUHU216HW,2013-03-05 01:05:00,
2013-03-04 19:10:00,57.6,41.6,29.71,SW,225,0.0,0.0,55,0.00,,,0.00,WUHU216HW,2013-03-05 01:10:00,
2013-03-04 19:15:00,57.2,42.7,29.71,WSW,248,1.1,1.6,58,0.00,,,0.00,WUHU216HW,2013-03-05 01:15:00,
2013-03-04 19:20:00,56.9,42.3,29.71,WSW,248,0.4,1.8,58,0.00,,,0.00,WUHU216HW,2013-03-05 01:20:00,
2013-03-04 19:25:00,56.9,42.3,29.71,WSW,248,0.0,1.8,58,0.00,,,0.00,WUHU216HW,2013-03-05 01:25:00,
2013-03-04 19:30:00,56.9,42.3,29.71,WSW,248,0.0,0.4,58,0.00,,,0.00,WUHU216HW,2013-03-05 01:30:00,
2013-03-04 19:35:00,56.5,41.4,29.71,WSW,248,0.0,0.0,57,0.00,,,0.00,WUHU216HW,2013-03-05 01:35:00,
2013-03-04 19:40:00,55.8,41.2,29.71,WSW,248,0.0,0.0,58,0.00,,,0.00,WUHU216HW,2013-03-05 01:40:00,
2013-03-04 19:45:00,55.8,41.7,29.71,WSW,248,1.8,1.8,59,0.00,,,0.00,WUHU216HW,2013-03-05 01:45:00,
2013-03-04 19:50:00,55.8,41.7,29.71,WSW,248,0.7,1.8,59,0.00,,,0.00,WUHU216HW,2013-03-05 01:50:00,
2013-03-04 19:55:00,55.4,41.3,29.71,WSW,248,0.4,1.8,59,0.00,,,0.00,WUHU216HW,2013-03-05 01:55:00,
2013-03-04 20:00:00,54.9,41.3,29.72,WSW,248,0.0,0.7,60,0.00,,,0.00,WUHU216HW,2013-03-05 02:00:00,
2013-03-04 20:05:00,54.7,42.0,29.72,WSW,248,0.4,0.7,62,0.00,,,0.00,WUHU216HW,2013-03-05 02:05:00,
2013-03-04 20:10:00,54.7,42.8,29.73,West,270,1.1,1.1,64,0.00,,,0.00,WUHU216HW,2013-03-05 02:10:00,
2013-03-04 20:15:00,53.6,43.8,29.74,North,0,6.3,6.3,69,0.00,,,0.00,WUHU216HW,2013-03-05 02:15:00,
2013-03-04 20:20:00,53.3,43.4,29.74,North,0,0.0,6.3,69,0.00,,,0.00,WUHU216HW,2013-03-05 02:20:00,
2013-03-04 20:25:00,52.6,42.8,29.74,North,0,0.0,6.3,69,0.00,,,0.00,WUHU216HW,2013-03-05 02:25:00,
2013-03-04 20:30:00,51.8,41.7,29.75,North,0,0.0,0.0,68,0.00,,,0.00,WUHU216HW,2013-03-05 02:30:00,
2013-03-04 20:35:00,51.3,41.9,29.75,North,0,0.0,0.0,70,0.00,,,0.00,WUHU216HW,2013-03-05 02:35:00,
2013-03-04 20:40:00,50.6,42.0,29.75,North,0,0.0,0.0,72,0.00,,,0.00,WUHU216HW,2013-03-05 02:40:00,
2013-03-04 20:45:00,49.7,41.1,29.76,North,0,0.0,0.0,72,0.00,,,0.00,WUHU216HW,2013-03-05 02:45:00,
2013-03-04 20:50:00,49.3,40.7,29.76,North,0,0.0,0.0,72,0.00,,,0.00,WUHU216HW,2013-03-05 02:50:00,
2013-03-04 20:55:00,48.8,39.8,29.76,North,0,0.0,0.0,71,0.00,,,0.00,WUHU216HW,2013-03-05 02:55:00,
2013-03-04 21:00:00,48.6,39.2,29.76,North,0,0.0,0.0,70,0.00,,,0.00,WUHU216HW,2013-03-05 03:00:00,
2013-03-04 21:05:00,48.2,38.9,29.77,North,0,0.0,0.0,70,0.00,,,0.00,WUHU216HW,2013-03-05 03:05:00,
2013-03-04 21:10:00,47.9,38.5,29.78,North,0,0.0,0.0,70,0.00,,,0.00,WUHU216HW,2013-03-05 03:10:00,
2013-03-04 21:15:00,47.3,38.4,29.79,North,0,0.0,0.0,71,0.00,,,0.00,WUHU216HW,2013-03-05 03:15:00,
2013-03-04 21:20:00,47.0,38.1,29.79,North,0,0.0,0.0,71,0.00,,,0.00,WUHU216HW,2013-03-05 03:20:00,
2013-03-04 21:25:00,46.6,38.1,29.80,North,0,0.0,0.0,72,0.00,,,0.00,WUHU216HW,2013-03-05 03:25:00,
2013-03-04 21:30:00,46.1,37.9,29.80,North,0,0.0,0.0,73,0.00,,,0.00,WUHU216HW,2013-03-05 03:30:00,
2013-03-04 21:35:00,46.1,37.6,29.81,North,0,0.0,0.0,72,0.00,,,0.00,WUHU216HW,2013-03-05 03:35:00,
2013-03-04 21:40:00,45.7,37.3,29.81,North,0,0.0,0.0,72,0.00,,,0.00,WUHU216HW,2013-03-05 03:40:00,
2013-03-04 21:45:00,45.7,36.9,29.81,North,0,0.0,0.0,71,0.00,,,0.00,WUHU216HW,2013-03-05 03:45:00,
2013-03-04 21:50:00,45.5,36.7,29.81,North,0,0.0,0.0,71,0.00,,,0.00,WUHU216HW,2013-03-05 03:50:00,
2013-03-04 21:55:00,45.5,36.0,29.82,North,0,0.0,0.0,69,0.00,,,0.00,WUHU216HW,2013-03-05 03:55:00,
2013-03-04 22:00:00,45.2,36.0,29.83,North,0,0.0,0.0,70,0.00,,,0.00,WUHU216HW,2013-03-05 04:00:00,
2013-03-04 22:05:00,45.0,35.5,29.83,North,0,0.0,0.0,69,0.00,,,0.00,WUHU216HW,2013-03-05 04:05:00,
2013-03-04 22:10:00,44.8,35.3,29.83,North,0,0.0,0.0,69,0.00,,,0.00,WUHU216HW,2013-03-05 04:10:00,
2013-03-04 22:15:00,44.5,34.9,29.84,North,0,0.0,0.0,69,0.00,,,0.00,WUHU216HW,2013-03-05 04:15:00,
2013-03-04 22:20:00,44.1,35.0,29.84,North,0,0.0,0.0,70,0.00,,,0.00,WUHU216HW,2013-03-05 04:20:00,
2013-03-04 22:25:00,43.9,34.8,29.85,North,0,0.0,0.0,70,0.00,,,0.00,WUHU216HW,2013-03-05 04:25:00,
2013-03-04 22:30:00,43.9,34.8,29.85,North,0,0.0,0.0,70,0.00,,,0.00,WUHU216HW,2013-03-05 04:30:00,
2013-03-04 22:35:00,43.7,35.0,29.85,North,0,0.0,0.0,71,0.00,,,0.00,WUHU216HW,2013-03-05 04:35:00,
2013-03-04 22:40:00,43.6,34.8,29.86,North,0,0.0,0.0,71,0.00,,,0.00,WUHU216HW,2013-03-05 04:40:00,
2013-03-04 22:45:00,43.4,34.7,29.86,North,0,0.0,0.0,71,0.00,,,0.00,WUHU216HW,2013-03-05 04:45:00,
2013-03-04 22:50:00,43.2,34.5,29.87,North,0,0.0,0.0,71,0.00,,,0.00,WUHU216HW,2013-03-05 04:50:00,
2013-03-04 22:55:00,42.8,34.2,29.87,NNW,338,7.6,7.6,71,0.00,,,0.00,WUHU216HW,2013-03-05 04:55:00,
2013-03-04 23:00:00,42.8,34.2,29.87,North,0,0.0,7.6,71,0.00,,,0.00,WUHU216HW,2013-03-05 05:00:00,
2013-03-04 23:05:00,42.8,33.8,29.86,North,0,0.0,7.6,70,0.00,,,0.00,WUHU216HW,2013-03-05 05:05:00,
2013-03-04 23:10:00,42.7,34.0,29.85,North,0,0.0,0.0,71,0.00,,,0.00,WUHU216HW,2013-03-05 05:10:00,
2013-03-04 23:15:00,42.5,33.9,29.86,North,0,0.0,0.0,71,0.00,,,0.00,WUHU216HW,2013-03-05 05:15:00,
2013-03-04 23:20:00,42.1,33.8,29.86,North,0,0.0,0.0,72,0.00,,,0.00,WUHU216HW,2013-03-05 05:20:00,
2013-03-04 23:25:00,41.9,33.6,29.86,North,0,0.0,0.0,72,0.00,,,0.00,WUHU216HW,2013-03-05 05:25:00,
2013-03-04 23:30:00,41.8,33.1,29.87,North,0,0.0,0.0,71,0.00,,,0.00,WUHU216HW,2013-03-05 05:30:00,
2013-03-04 23:35:00,41.6,33.0,29.86,North,0,0.0,0.0,71,0.00,,,0.00,WUHU216HW,2013-03-05 05:35:00,
2013-03-04 23:40:00,41.4,32.8,29.87,North,0,0.0,0.0,71,0.00,,,0.00,WUHU216HW,2013-03-05 05:40:00,
2013-03-04 23:45:00,41.2,32.9,29.88,North,0,0.0,0.0,72,0.00,,,0.00,WUHU216HW,2013-03-05 05:45:00,
2013-03-04 23:50:00,40.9,32.5,29.90,North,0,0.0,0.0,72,0.00,,,0.00,WUHU216HW,2013-03-05 05:50:00,
2013-03-04 23:55:00,40.7,32.7,29.91,North,0,0.0,0.0,73,0.00,,,0.00,WUHU216HW,2013-03-05 05:55:00,